This demonstration page uses our WeatherBlox Daily Observations layout. Learn more.

Left ArrowRight Arrow

Hourly Observations for March 4, 2021

Temp ( °F °C ) Dew Point ( °F °C ) Humidity (%) Winds ( mph kmh ) Pressure ( in mb ) Visibility ( mi km ) Precip ( " mm )
12:15 am 00:15 Clear 39 4.1 29 -1.5 67 67 SE 8 13 30.11 1020 10 16 N/A
12:35 am 00:35 Clear 40 4.6 30 -1.2 66 66 SSE 3 6 30.10 1019 10 16 N/A
12:55 am 00:55 Clear 41 4.8 29 -1.6 64 64 SSE 5 7 30.11 1020 10 16 N/A
1:15 am 01:15 Clear 40 4.3 29 -1.5 66 66 S 6 9 30.11 1020 10 16 N/A
1:35 am 01:35 Clear 41 4.9 29 -1.8 62 62 S 6 9 30.11 1020 10 16 N/A
1:55 am 01:55 Clear 41 4.8 29 -1.9 62 62 S 6 9 30.10 1019 10 16 N/A
2:15 am 02:15 Clear 40 4.6 28 -2.3 61 61 S 3 6 30.10 1019 10 16 N/A
2:35 am 02:35 Clear 38 3.3 28 -2.5 66 66 S 3 6 30.11 1020 10 16 N/A
2:55 am 02:55 Clear 40 4.7 27 -2.6 60 60 S 5 7 30.09 1019 10 16 N/A
3:15 am 03:15 Clear 37 2.7 27 -3 66 66 S 3 6 30.11 1020 10 16 N/A
3:35 am 03:35 Clear 32 undefined 26 -3.4 78 78 N N/A 30.14 1020 10 16 N/A
3:55 am 03:55 Clear 34 1.3 27 -3 73 73 N N/A 30.13 1020 10 16 N/A
4:15 am 04:15 Clear 32 undefined 26 -3.5 78 78 NNE 5 7 30.15 1021 10 16 N/A
4:35 am 04:35 Clear 32 -0.1 27 -2.7 83 83 NE 3 6 30.15 1021 10 16 N/A
4:55 am 04:55 Clear 32 -0.1 27 -2.6 83 83 N N/A 30.15 1021 10 16 N/A
5:15 am 05:15 Clear 31 -0.4 27 -2.8 84 84 N N/A 30.16 1021 10 16 N/A
5:35 am 05:35 Clear 31 -0.6 26 -3.3 82 82 N N/A 30.15 1021 10 16 N/A
5:55 am 05:55 Clear 30 -1 26 -3.2 85 85 N N/A 30.15 1021 10 16 N/A
6:15 am 06:15 Clear 30 -0.9 27 -2.9 86 86 N N/A 30.16 1021 10 16 N/A
6:35 am 06:35 Clear 31 -0.7 27 -2.7 87 87 N N/A 30.15 1021 10 16 N/A
6:55 am 06:55 Clear 31 -0.6 27 -2.7 86 86 N 3 6 30.14 1021 10 16 N/A
7:15 am 07:15 Sunny 31 -0.3 28 -2.3 87 87 N 7 11 30.15 1021 10 16 N/A
7:35 am 07:35 Sunny 31 -0.3 28 -2.1 88 88 NNE 5 7 30.15 1021 10 16 N/A
7:55 am 07:55 Sunny 34 1.1 30 -0.9 87 87 NNE 5 7 30.13 1020 10 16 N/A
8:15 am 08:15 Sunny 37 2.6 32 -0.1 83 83 NE 5 7 30.13 1020 10 16 N/A
8:35 am 08:35 Sunny 38 3.4 32 undefined 79 79 NE 5 7 30.12 1020 10 16 N/A
8:55 am 08:55 Sunny 41 5.1 33 0.3 71 71 ENE 3 6 30.11 1020 10 16 N/A
9:15 am 09:15 Sunny 44 6.8 33 0.8 66 66 N N/A 30.09 1019 10 16 N/A
9:35 am 09:35 Sunny 46 7.6 33 0.6 62 62 ESE 3 6 30.08 1019 10 16 N/A
9:55 am 09:55 Sunny 49 9.2 33 0.5 55 55 E 5 7 30.07 1018 10 16 N/A
10:15 am 10:15 Sunny 52 11 34 1 50 50 E 6 9 30.05 1018 10 16 N/A
10:35 am 10:35 Sunny 55 12.6 33 0.5 44 44 E 9 15 30.03 1017 10 16 N/A
10:55 am 10:55 Sunny 57 14.1 31 -0.3 37 37 ESE 10 17 30.01 1016 10 16 N/A
11:15 am 11:15 Sunny 60 15.4 32 -0.1 35 35 E 12 19 30.00 1016 10 16 N/A
11:35 am 11:35 Sunny 62 16.5 32 undefined 33 33 E 12 19 29.98 1015 10 16 N/A
12:15 pm 12:15 Sunny 65 18.3 32 -0.1 29 29 ESE 14 22 29.95 1014 10 16 N/A
12:35 pm 12:35 Sunny 66 19 29 -1.8 25 25 ESE 17 28 29.94 1014 10 16 N/A
12:55 pm 12:55 Sunny 66 19 27 -2.8 23 23 ESE 20 31 29.94 1014 10 16 N/A
1:15 pm 13:15 Sunny 67 19.3 27 -2.8 22 22 ESE 16 26 29.92 1013 10 16 N/A
1:35 pm 13:35 Sunny 67 19.2 26 -3.1 22 22 ESE 18 30 29.92 1013 10 16 N/A
1:55 pm 13:55 Sunny 67 19.6 26 -3.6 21 21 ESE 13 20 29.91 1013 10 16 N/A
2:15 pm 14:15 Sunny 68 20 26 -3.5 20 20 ESE 14 22 29.91 1013 10 16 N/A
2:35 pm 14:35 Sunny 68 19.9 26 -3.3 21 21 SE 16 26 29.90 1012 10 16 N/A
2:55 pm 14:55 Sunny 67 19.7 26 -3.2 21 21 ESE 18 30 29.90 1013 10 16 N/A
3:15 pm 15:15 Sunny 66 18.9 27 -2.8 23 23 SE 14 22 29.91 1013 10 16 N/A
3:35 pm 15:35 Sunny 65 18.5 28 -2.3 24 24 SE 12 19 29.91 1013 10 16 N/A
3:55 pm 15:55 Sunny 65 18.3 29 -1.4 26 26 ESE 15 24 29.92 1013 10 16 N/A
4:15 pm 16:15 Sunny 64 17.8 31 -0.7 29 29 ESE 12 19 29.93 1013 10 16 N/A
4:35 pm 16:35 Sunny 64 17.6 31 -0.7 29 29 ESE 12 19 29.93 1013 10 16 N/A
4:55 pm 16:55 Sunny 63 17.1 32 undefined 32 32 E 12 19 29.93 1014 10 16 N/A
5:15 pm 17:15 Sunny 61 16.3 32 0.1 33 33 E 9 15 29.94 1014 10 16 N/A
5:35 pm 17:35 Sunny 60 15.6 32 0.2 35 35 E 8 13 29.95 1014 10 16 N/A
5:55 pm 17:55 Sunny 59 15.1 32 0.2 36 36 E 9 15 29.96 1015 10 16 N/A
6:15 pm 18:15 Sunny 56 13.1 34 1.2 45 45 E 7 11 30.00 1016 10 16 N/A
6:35 pm 18:35 Clear 53 11.5 35 1.4 50 50 E 7 11 30.02 1017 10 16 N/A
6:55 pm 18:55 Clear 51 10.3 34 1.3 54 54 SE 5 7 30.04 1017 10 16 N/A
7:15 pm 19:15 Clear 50 10.2 34 1 53 53 ENE 8 13 30.04 1017 10 16 N/A
7:35 pm 19:35 Clear 47 8.4 34 1.3 61 61 ENE 10 17 30.07 1018 10 16 N/A
7:55 pm 19:55 Clear 48 8.7 34 1.3 60 60 NE 8 13 30.07 1018 10 16 N/A
8:15 pm 20:15 Clear 48 9.1 34 1.3 58 58 ENE 10 17 30.08 1019 10 16 N/A
8:35 pm 20:35 Clear 48 9 35 1.5 60 60 ENE 10 17 30.08 1019 10 16 N/A
8:55 pm 20:55 Clear 48 8.7 36 2 63 63 ENE 10 17 30.09 1019 10 16 N/A
9:15 pm 21:15 Clear 47 8.3 36 2.1 65 65 ENE 9 15 30.10 1019 10 16 N/A
9:35 pm 21:35 Clear 46 8 36 2.2 67 67 ENE 10 17 30.11 1020 10 16 N/A
9:55 pm 21:55 Clear 47 8.3 36 2 65 65 ENE 12 19 30.11 1020 10 16 N/A
10:15 pm 22:15 Clear 46 7.6 35 1.9 67 67 ENE 10 17 30.12 1020 10 16 N/A
10:35 pm 22:35 Clear 45 7.2 35 1.8 69 69 NE 13 20 30.13 1020 10 16 N/A
10:55 pm 22:55 Clear 45 7.2 35 1.7 68 68 NE 13 20 30.14 1021 10 16 N/A
11:15 pm 23:15 Clear 45 7.2 35 1.6 68 68 ENE 12 19 30.14 1021 10 16 N/A
11:35 pm 23:35 Clear 45 7 35 1.7 69 69 ENE 9 15 30.15 1021 10 16 N/A
11:55 pm 23:55 Clear 44 6.6 35 1.6 71 71 ENE 6 9 30.16 1021 10 16 N/A

Powered by AerisWeather